Location: �terpigny
(49.8910°N, 2.9249°E)
Time: 01:12:30
(UTC+00:00)

CUTE 1.7 + AOD 2 - Pass Details

Date: 02 July 2022
Orbit: 589 x 608 km, 97.7° (Epoch: 07 August)

Event Time Altitude Azimuth Distance (km) Brightness Sun altitude
Rises 02:16:58 0° 33° (NNE) 2,852 ? -10.3°
Reaches altitude 10° 02:21:06 10° 73° (ENE) 1,935 ? -10.0°
Maximum altitude 02:22:00 11° 86° (E) 1,894 ? -9.9°
Drops below altitude 10° 02:22:54 10° 98° (E) 1,929 ? -9.8°
Sets 02:26:58 0° 138° (SE) 2,818 ? -9.4°
